Regional Weather Roundup
Issued by NWS

Home | Current Version | Previous Version | Text Only | Print | Product List | Glossary On
Versions: 1 2 3 4 5 6 7 8 9 10 11 12 13 14 15 16 17 18 19 20 21 22 23 24 25 26 27 28 29 30 31 32 33 34 35 36 37 38 39 40 41 42 43 44 45 46 47 48 49 50
506
ASUS44 KLIX 102213
RWRLA
LOUISIANA WEATHER ROUNDUP
NATIONAL WEATHER SERVICE NEW ORLEANS LA
400 PM CST SAT DEC 10 2016

NOTE: "FAIR" INDICATES FEW OR NO CLOUDS BELOW 12,000 FEET WITH NO
      SIGNIFICANT WEATHER AND/OR OBSTRUCTIONS TO VISIBILITY.
      SKY/WX - SKY CONDITION AND SIGNIFICANT WEATHER.
      TMP - AIR TEMPERATURE.    DP   - DEWPOINT TEMPERATURE.
      RH  - RELATIVE HUMIDITY.  PRES - PRESSURE.
      HX  - HEAT INDEX.         WCI  - WIND CHILL INDEX.

*  THESE STATIONS ARE NOT NWS OR FAA STATIONS AND ARE NOT UNDER
   NWS QUALITY CONTROL.

LAZ040-048-061>063-065-066-069-102300-
SOUTHEAST LOUISIANA

CITY           SKY/WX    TMP DP  RH WIND       PRES   REMARKS
N.O. AUDUBON   NOT AVBL
N.O. INTL ARPT MOSUNNY   52  25  35 N9        30.41R
N.O. LAKEFRONT SUNNY     52  28  39 E5        30.41R
N.O. DOWNTOWN*   N/A     52  24  33 E5        30.41R
RESERVE*       FAIR      54  17  23 NE5       30.41S
SLIDELL        SUNNY     56  16  20 NE5       30.40R
BATON ROUGE    SUNNY     56  18  22 NE6       30.40S
BOOTHVILLE     SUNNY     48  35  60 NE13      30.39F
BELLE CHASSE   MOSUNNY   52  21  29 NE10      30.40S
BOGALUSA*      FAIR      56  13  19 NE6       30.42R
GALLIANO*      CLEAR     51  27  38 NE7       30.39S
NEW ROADS*     FAIR      55  23  29 E5        30.40F
GONZALES*      FAIR      54  20  26 E3        30.40S
HAMMOND*       SUNNY     59  18  20 CALM      30.41R
HOUMA*         SUNNY     54  21  28 NE9       30.40S
PORT FOURCHON* CLEAR     52  34  50 E14       30.38F

$$

LAZ041-044-053-054-102300-
SOUTHWEST LOUISIANA

CITY           SKY/WX    TMP DP  RH WIND       PRES   REMARKS
LAKE CHARLES     N/A     54  27  35 E9        30.38F
LAFAYETTE      SUNNY     57  19  22 E5        30.40S
PATTERSON      SUNNY    N/A N/A N/A E8        30.40R
SALT POINT     NOT AVBL
NEW IBERIA     SUNNY     56  18  22 E8        30.40S
CHENAULT AIRPK NOT AVBL

$$

LAZ027-028-102300-
CENTRAL LOUISIANA

CITY           SKY/WX    TMP DP  RH WIND       PRES   REMARKS
FORT POLK      SUNNY     54  23  30 SE7       30.36F
ALEXANDRIA INT SUNNY     53  17  24 E5        30.37F
ALEXANDRIA     SUNNY     54  22  28 NE5       30.39F

$$

LAZ001-002-102300-
NORTHWEST LOUISIANA

CITY           SKY/WX    TMP DP  RH WIND       PRES   REMARKS
SHREVEPORT     CLOUDY    50  26  39 SE6       30.36F
BARKSDALE AFB  CLOUDY    50  25  38 S8        30.36F
DTN SHREVEPORT CLOUDY    50  24  36 SE7       30.37F

$$

LAZ014-016-102300-
NORTHEAST LOUISIANA

CITY           SKY/WX    TMP DP  RH WIND       PRES   REMARKS
MONROE         SUNNY     50  21  32 S6        30.41F
TALLULAH       CLEAR     52  18  26 CALM      30.41F

$$





USA.gov is the U.S. government's official web portal to all federal, state and local government web resources and services.